Regional Weather Roundup
Issued by NWS

Home | Current Version | Previous Version | Graphics & Text | Print | Product List | Glossary On
Versions: 1 2 3 4 5 6 7 8 9 10 11 12 13 14 15 16 17 18 19 20 21 22 23 24 25 26 27 28 29 30 31 32 33 34 35 36 37 38 39 40 41 42 43 44 45 46 47 48 49 50
000
ASUS43 KMKX 060521
RWRWI

WISCONSIN REGIONAL WEATHER ROUNDUP
NATIONAL WEATHER SERVICE MILWAUKEE/SULLIVAN WI
1200 AM CDT WED MAY 06 2015

NOTE: "FAIR" INDICATES FEW OR NO CLOUDS BELOW 12,000 FEET WITH NO
SIGNIFICANT WEATHER AND/OR OBSTRUCTIONS TO VISIBILITY.

WIZ001-002-006>008-014>016-023>028-060600-
NORTHWEST WISCONSIN

CITY           SKY/WX    TMP DP  RH WIND       PRES   REMARKS
SUPERIOR ARPT  CLOUDY    44  34  66 NE7       30.18S
ASHLAND        PTCLDY    36  34  92 S5        30.20R WCI  32
HAYWARD        PTCLDY    57  30  35 SE6       30.18F
SIREN          MOCLDY    59  32  37 SE6       30.15S
CUMBERLAND     CLOUDY    55  36  47 SE8       30.17R
RICE LAKE      CLOUDY    59  39  47 SE9       30.19S
CHETEK         CLOUDY    58  43  58 E9        30.18S
LADYSMITH      MOCLDY    55  31  40 E6        30.22S
EAU CLAIRE     LGT RAIN  53  48  83 MISG      30.18S
MENOMONIE      DRIZZLE   54  50  86 E8        30.18S
NEW RICHMOND   CLOUDY    55  49  80 SE12      30.16S
OSCEOLA        CLOUDY    58  51  76 SE15      30.17F
$$

WIZ003>005-009-010-017-018-060600-
NORTH CENTRAL WISCONSIN

CITY           SKY/WX    TMP DP  RH WIND       PRES   REMARKS
MANITOWISH WTR PTCLDY    51  28  41 SE5       30.23S
ARBOR VITAE    PTCLDY    53  28  38 SE6       30.23F
WOODRUFF       PTCLDY    53  28  38 SE6       30.23F
RHINELANDER    PTCLDY    48  28  46 SE5       30.25S
EAGLE RIVER    CLEAR     46  27  48 CALM      30.25S
LAND O LAKES   CLEAR     42  31  64 CALM      30.25S
PHILLIPS       MOCLDY    53  28  39 CALM      30.22S
TOMAHAWK       MOCLDY    50  26  38 SE3       30.24F
MEDFORD        CLOUDY    55  26  33 SE6       30.22S
MERRILL        MOCLDY    53  26  34 E5        30.24F
$$

WIZ029-030-035-036-043>047-060600-
CENTRAL WISCONSIN

CITY           SKY/WX    TMP DP  RH WIND       PRES   REMARKS
WAUSAU         CLOUDY    56  24  29 E7        30.22S
MOSINEE        RAIN      54  32  43 E3        30.24F
MARSHFIELD     CLOUDY    54  44  69 E9        30.22S
STEVENS POINT  LGT RAIN  53  45  72 E6        30.23F
WAUPACA        CLOUDY    57  46  67 E5        30.24S
WAUTOMA        LGT RAIN  53  50  90 CALM      30.24S FOG
WISC RAPIDS    LGT RAIN  53  45  74 SE7       30.23F
CAMP DOUGLAS   CLOUDY    52  52 100 SE7       30.20S
$$

WIZ011>013-019>022-031-037>040-048>050-060600-
NORTHEAST WISCONSIN

CITY           SKY/WX    TMP DP  RH WIND       PRES   REMARKS
ANTIGO         CLOUDY    49  35  60 SE6       30.25S
SHAWANO        CLOUDY    55  30  39 SE3       30.26S
OCONTO         CLOUDY    48  41  76 CALM      30.25F
STURGEON BAY   CLOUDY    52  28  40 E5        30.28S
GREEN BAY      CLOUDY    53  35  50 S3        30.26R
MANITOWOC      CLOUDY    49  42  77 CALM      30.26F
APPLETON       CLOUDY    55  34  44 E3        30.25S
CLINTONVILLE   CLOUDY    54  32  43 E3        30.25S
OSHKOSH        CLOUDY    55  40  56 E7        30.24S
$$

WIZ032>034-041-042-053>061-060600-
SOUTHWEST WISCONSIN

CITY           SKY/WX    TMP DP  RH WIND       PRES   REMARKS
LA CROSSE      CLOUDY    56  52  86 E6        30.19R
SPARTA         CLOUDY    52  50  93 CALM      30.20S
VIROQUA        CLOUDY    52  52 100 SE12      30.19R
BOSCOBEL       CLOUDY    56  53  90 E3        30.20S FOG
PRAIRIE DU CHI CLOUDY    56  53  90 E8        30.18R
PLATTEVILLE    CLOUDY    52  51  96 E12       30.19S
$$

WIZ056-057-062-063-064-067-068-060600-
SOUTH CENTRAL WISCONSIN

CITY           SKY/WX    TMP DP  RH WIND       PRES   REMARKS
REEDSBURG      CLOUDY    51  50  95 E6        30.22R
BARABOO/DELLS  NOT AVBL
LONE ROCK      CLOUDY    53  50  89 E9        30.21R
MINERAL POINT  CLOUDY    52  50  93 E9        30.20R FOG
MADISON        CLOUDY    52  49  89 MISG      30.22S
MIDDLETON      CLOUDY    53  51  92 E10       30.22S
WATERTOWN      CLOUDY    50  50 100 E5        30.23S
MONROE         CLOUDY    50  50 100 E7        30.21R FOG
JANESVILLE     CLOUDY    52  50  93 E8        30.21S FOG
$$

WIZ051-052-058>065-066-070>072-060600-
SOUTHEAST WISCONSIN

CITY           SKY/WX    TMP DP  RH WIND       PRES   REMARKS
MILWAUKEE      LGT RAIN  45  37  73 N5        30.26R
WAUKESHA       CLOUDY    45  43  93 E7        30.25F
MILWAUKEE/TIMM RAIN      45  41  87 CALM      30.26S
RACINE         CLOUDY    46  40  79 NE7       30.25F
BURLINGTON     CLOUDY    46  44  94 E6        30.23F
KENOSHA        CLOUDY    48  45  89 NE6       30.24F
FOND DU LAC    LGT RAIN  52  44  74 E3        30.24F
SHEBOYGAN      CLOUDY    48  37  65 CALM      30.26S
WEST BEND      RAIN      46  41  81 E6        30.25F
JUNEAU         LGT RAIN  50  48  94 E6        30.25S
$$

LSZ147-162-060600-
LAKE SUPERIOR

STATION/POSITION TIME  TEMP    WIND        PRES    WAVE
                       AIR SEA DIR/SP/G            HT/PER
                 (UTC) (F)     (DEG/KT/KT) (MB)    (FT/S)
W MID LAKE BUOY  0450   43 35  130/ 10/ 12 1022.8R   1/ 3
DEVILS ISLAND    0500   42     320/  5/  6 1023.0R
PORT WING        0400   41      CALM  /  2 1022.4
SAXON HARBOR     0400   41        CALM     1021.7S
$$

LMZ867-665-643>646-060600-
LAKE MICHIGAN

STATION/POSITION TIME  TEMP    WIND        PRES    WAVE
                       AIR SEA DIR/SP/G            HT/PER
                 (UTC) (F)     (DEG/KT/KT) (MB)    (FT/S)
CHAMBERS ISLAND  0400   43      CALM  /  1 1024.7F
NORTHPORT PIER   0400   49     310/  2/  3 1024.7S
SISTER BAY       0417   46        CALM       N/A
KEWAUNEE LAKESHO 0412   47      CALM  /  1 1023.7F
SHEBOYGAN LAKESH 0500   48     320/  2/  2 1025.4R
PORT WASHINGTON  0440   48     310/  3/  4 1025.4S
ATWATER BUOY     0500   44     360/  6/  8 1025.7F
MILWAUKEE LAKESH 0500   45      10/  8/ 10   N/A
KENOSHA   LAKESH 0500   45      20/ 10/ 12 1023.7F
$$

TC  - TEMPERATURE IN CELSIUS
VSB - VISIBILITY IN STATUTE MILES
WCI - WIND CHILL INDEX
HX  - HEAT INDEX



USA.gov is the U.S. government's official web portal to all federal, state and local government web resources and services.